QPF
0.00 0.00 0.01 0.01 0.00 0.00 0.00 0.00 0.00 0.00 0.01 0.02 0.01 0.01 0.00 0.00 0.00 0.00 0.00 0.00 0.00 0.00 0.00 0.00 0.00 0.00 0.00 0.00 0.00 0.00 0.00 0.00 0.00 0.00 0.00 0.02 0.01 0.00 0.00 0.00 0.00 0.00 0.00
0.00 0.00 0.01 0.00 0.00 0.01 0.00 0.00 0.00 0.00 0.00 0.02 0.02 0.02 0.01 0.01 0.02 0.01 0.00 0.00 0.00 0.00 0.00 0.00 0.00 0.00 0.00 0.00 0.00 0.00 0.00 0.00 0.00 0.00 0.00 0.00 0.01 0.01 0.00 0.01 0.01 0.02 0.00
0.00 0.00 0.01 0.00 0.01 0.01 0.00 0.00 0.00 0.00 0.00 0.02 0.05 0.06 0.06 0.07 0.04 0.00 0.00 0.00 0.00 0.00 0.00 0.00 0.00 0.00 0.00 0.00 0.00 0.00 0.00 0.00 0.00 0.00 0.00 0.00 0.00 0.01 0.01 0.00 0.00 0.01 0.01
0.00 0.00 0.00 0.00 0.01 0.00 0.00 0.00 0.00 0.00 0.00 0.01 0.04 0.06 0.06 0.04 0.00 0.00 0.00 0.00 0.00 0.00 0.00 0.00 0.00 0.00 0.00 0.00 0.00 0.00 0.00 0.00 0.00 0.00 0.00 0.00 0.00 0.00 0.00 0.00 0.00 0.00 0.00
0.00 0.00 0.00 0.00 0.01 0.00 0.00 0.00 0.00 0.00 0.00 0.00 0.00 0.01 0.02 0.00 0.00 0.00 0.00 0.00 0.00 0.00 0.00 0.00 0.00 0.00 0.00 0.00 0.00 0.00 0.00 0.00 0.00 0.00 0.00 0.00 0.00 0.00 0.00 0.00 0.00 0.00 0.00
0.00 0.00 0.00 0.02 0.01 0.00 0.00 0.00 0.00 0.00 0.00 0.00 0.00 0.00 0.00 0.00 0.00 0.00 0.00 0.00 0.00 0.00 0.00 0.00 0.00 0.00 0.00 0.00 0.00 0.00 0.00 0.00 0.00 0.00 0.00 0.00 0.00 0.00 0.00 0.00 0.00 0.00 0.00
0.00 0.01 0.01 0.02 0.00 0.00 0.00 0.01 0.01 0.00 0.00 0.00 0.00 0.00 0.00 0.00 0.00 0.00 0.00 0.00 0.00 0.00 0.00 0.00 0.00 0.00 0.00 0.00 0.00 0.00 0.00 0.00 0.00 0.00 0.00 0.00 0.00 0.00 0.00 0.00 0.00 0.00 0.00
0.00 0.01 0.02 0.01 0.00 0.00 0.00 0.01 0.02 0.01 0.00 0.00 0.00 0.00 0.00 0.00 0.00 0.00 0.00 0.00 0.00 0.00 0.00 0.00 0.00 0.00 0.00 0.00 0.00 0.00 0.00 0.00 0.00 0.00 0.00 0.00 0.00 0.00 0.00 0.00 0.00 0.00 0.00
0.01 0.02 0.03 0.00 0.00 0.00 0.00 0.00 0.02 0.02 0.00 0.00 0.00 0.00 0.00 0.00 0.00 0.00 0.00 0.00 0.00 0.00 0.00 0.00 0.00 0.00 0.00 0.00 0.00 0.00 0.00 0.00 0.00 0.00 0.00 0.00 0.00 0.00 0.00 0.00 0.00 0.00 0.00
0.07 0.03 0.01 0.00 0.00 0.00 0.00 0.00 0.00 0.02 0.01 0.00 0.00 0.00 0.00 0.00 0.00 0.00 0.00 0.00 0.00 0.00 0.00 0.00 0.00 0.00 0.00 0.00 0.00 0.00 0.00 0.00 0.00 0.00 0.00 0.00 0.00 0.00 0.00 0.00 0.00 0.00 0.00
0.09 0.08 0.02 0.01 0.00 0.00 0.00 0.00 0.00 0.01 0.01 0.00 0.00 0.00 0.00 0.00 0.00 0.00 0.00 0.00 0.00 0.00 0.00 0.00 0.00 0.00 0.00 0.00 0.00 0.00 0.00 0.00 0.00 0.00 0.00 0.00 0.00 0.00 0.00 0.00 0.00 0.00 0.00
0.02 0.02 0.02 0.01 0.00 0.00 0.00 0.00 0.00 0.00 0.01 0.00 0.00 0.00 0.00 0.00 0.00 0.00 0.00 0.00 0.00 0.00 0.00 0.00 0.00 0.00 0.00 0.00 0.00 0.00 0.00 0.00 0.00 0.00 0.00 0.00 0.00 0.00 0.00 0.00 0.00 0.00 0.00
0.04 0.09 0.11 0.05 0.01 0.00 0.00 0.00 0.00 0.00 0.00 0.00 0.00 0.00 0.00 0.00 0.00 0.00 0.00 0.00 0.00 0.00 0.00 0.00 0.00 0.00 0.00 0.00 0.00 0.00 0.00 0.00 0.00 0.00 0.00 0.00 0.00 0.00 0.00 0.00 0.00 0.00 0.00
0.09 0.18 0.19 0.08 0.01 0.00 0.00 0.00 0.00 0.00 0.00 0.00 0.00 0.00 0.00 0.00 0.00 0.00 0.00 0.00 0.00 0.00 0.00 0.00 0.00 0.00 0.00 0.00 0.00 0.00 0.00 0.00 0.00 0.00 0.00 0.00 0.00 0.00 0.00 0.00 0.00 0.00 0.00
0.12 0.04 0.11 0.17 0.06 0.02 0.00 0.00 0.00 0.00 0.00 0.00 0.00 0.00 0.00 0.00 0.00 0.00 0.00 0.00 0.00 0.00 0.00 0.00 0.00 0.00 0.00 0.00 0.00 0.00 0.00 0.00 0.00 0.00 0.00 0.00 0.00 0.00 0.00 0.00 0.00 0.00 0.00
0.01 0.00 0.01 0.05 0.07 0.07 0.02 0.00 0.00 0.00 0.00 0.00 0.00 0.00 0.00 0.00 0.00 0.00 0.00 0.00 0.00 0.00 0.00 0.00 0.00 0.00 0.00 0.00 0.00 0.00 0.00 0.00 0.00 0.00 0.00 0.00 0.00 0.00 0.00 0.00 0.00 0.01 0.03
0.01 0.00 0.00 0.00 0.01 0.05 0.08 0.03 0.00 0.00 0.00 0.00 0.00 0.00 0.00 0.00 0.00 0.00 0.00 0.00 0.00 0.00 0.00 0.00 0.00 0.00 0.00 0.00 0.00 0.00 0.00 0.00 0.00 0.00 0.00 0.00 0.00 0.00 0.00 0.00 0.00 0.01 0.03
0.03 0.01 0.00 0.00 0.00 0.02 0.13 0.08 0.07 0.04 0.02 0.01 0.00 0.00 0.00 0.00 0.00 0.00 0.00 0.00 0.00 0.00 0.00 0.00 0.00 0.00 0.00 0.00 0.00 0.00 0.00 0.00 0.00 0.00 0.00 0.00 0.00 0.00 0.00 0.00 0.00 0.00 0.00
0.04 0.00 0.00 0.00 0.00 0.00 0.01 0.03 0.12 0.10 0.11 0.08 0.05 0.00 0.00 0.00 0.00 0.00 0.00 0.00 0.00 0.00 0.00 0.00 0.00 0.00 0.00 0.00 0.00 0.00 0.00 0.00 0.00 0.00 0.00 0.00 0.00 0.00 0.00 0.00 0.00 0.00 0.00
0.02 0.03 0.02 0.00 0.00 0.00 0.02 0.01 0.01 0.03 0.19 0.16 0.07 0.01 0.00 0.00 0.00 0.00 0.00 0.00 0.00 0.00 0.00 0.00 0.00 0.00 0.00 0.00 0.00 0.00 0.00 0.00 0.00 0.00 0.00 0.00 0.00 0.00 0.00 0.00 0.00 0.00 0.00
0.05 0.03 0.05 0.03 0.03 0.02 0.08 0.09 0.09 0.03 0.01 0.07 0.10 0.06 0.01 0.00 0.00 0.00 0.00 0.00 0.00 0.00 0.00 0.00 0.00 0.00 0.00 0.00 0.00 0.00 0.00 0.00 0.00 0.00 0.00 0.00 0.00 0.00 0.00 0.00 0.00 0.00 0.00
0.14 0.11 0.09 0.04 0.15 0.06 0.04 0.03 0.04 0.08 0.04 0.03 0.12 0.21 0.26 0.20 0.17 0.11 0.02 0.02 0.02 0.00 0.00 0.00 0.00 0.00 0.00 0.00 0.00 0.00 0.00 0.00 0.00 0.00 0.00 0.00 0.00 0.00 0.00 0.00 0.00 0.00 0.00
0.13 0.10 0.09 0.08 0.16 0.03 0.01 0.17 0.22 0.15 0.04 0.04 0.06 0.05 0.06 0.05 0.06 0.15 0.18 0.23 0.21 0.13 0.04 0.00 0.00 0.00 0.00 0.00 0.00 0.00 0.00 0.00 0.00 0.00 0.00 0.00 0.00 0.00 0.00 0.00 0.00 0.00 0.00
0.02 0.11 0.04 0.06 0.12 0.19 0.31 0.34 0.09 0.09 0.19 0.05 0.20 0.17 0.21 0.17 0.13 0.22 0.15 0.06 0.07 0.10 0.11 0.07 0.01 0.00 0.00 0.00 0.00 0.00 0.00 0.00 0.00 0.00 0.00 0.00 0.00 0.00 0.00 0.00 0.00 0.00 0.00
0.00 0.00 0.01 0.07 0.13 0.17 0.21 0.29 0.26 0.38 0.38 0.31 0.32 0.19 0.17 0.19 0.20 0.16 0.13 0.10 0.10 0.10 0.07 0.05 0.01 0.00 0.00 0.00 0.00 0.00 0.00 0.00 0.00 0.00 0.00 0.00 0.00 0.00 0.00 0.00 0.00 0.00 0.00
0.00 0.00 0.00 0.00 0.01 0.06 0.09 0.08 0.14 0.15 0.11 0.11 0.12 0.16 0.16 0.10 0.04 0.04 0.03 0.03 0.02 0.02 0.01 0.00 0.00 0.00 0.00 0.00 0.00 0.00 0.00 0.00 0.00 0.00 0.00 0.00 0.00 0.00 0.00 0.00 0.00 0.00 0.00
MSLP
1011.93 1012.02 1012.47 1012.85 1013.30 1013.58 1013.86 1014.10 1014.23 1014.43 1014.49 1014.35 1014.59 1014.87 1015.11 1015.40 1015.61 1015.95 1016.26 1016.65 1016.91 1017.06 1017.19 1017.29 1017.47 1017.65 1017.80 1017.92 1018.23 1018.38 1018.47 1018.41 1018.59 1018.56 1018.51 1018.39 1018.36 1018.43 1018.51 1018.52 1018.49 1018.42 1018.36
1011.58 1011.98 1012.45 1012.90 1013.37 1013.72 1014.00 1014.27 1014.52 1014.67 1014.75 1014.62 1014.77 1015.03 1015.31 1015.62 1015.91 1016.21 1016.46 1016.82 1017.09 1017.26 1017.35 1017.51 1017.70 1017.91 1018.11 1018.33 1018.53 1018.72 1018.83 1018.83 1018.96 1018.95 1018.88 1018.82 1018.71 1018.66 1018.63 1018.66 1018.52 1018.49 1018.58
1011.74 1012.08 1012.59 1012.94 1013.44 1013.90 1014.32 1014.58 1014.80 1014.94 1014.98 1014.92 1014.98 1015.21 1015.56 1015.89 1016.14 1016.44 1016.80 1017.12 1017.33 1017.45 1017.60 1017.76 1017.98 1018.22 1018.50 1018.70 1018.82 1018.95 1019.10 1019.18 1019.28 1019.28 1019.25 1019.21 1019.05 1018.89 1018.78 1018.81 1018.79 1018.72 1018.72
1011.79 1012.27 1012.69 1013.11 1013.60 1013.96 1014.50 1014.86 1015.08 1015.22 1015.31 1015.29 1015.40 1015.66 1015.96 1016.15 1016.46 1016.81 1017.10 1017.47 1017.64 1017.76 1017.98 1018.17 1018.37 1018.55 1018.75 1018.83 1019.03 1019.08 1019.31 1019.47 1019.57 1019.60 1019.70 1019.63 1019.42 1019.32 1019.26 1019.22 1019.13 1019.06 1018.93
1012.10 1012.48 1012.89 1013.31 1013.74 1014.09 1014.51 1015.07 1015.29 1015.50 1015.65 1015.67 1015.79 1016.01 1016.22 1016.29 1016.78 1017.19 1017.52 1017.81 1017.96 1018.15 1018.39 1018.51 1018.74 1018.85 1018.93 1018.99 1019.15 1019.45 1019.59 1019.77 1019.87 1019.93 1019.99 1019.99 1019.84 1019.67 1019.62 1019.66 1019.68 1019.60 1019.34
1012.32 1012.72 1013.11 1013.55 1013.92 1014.27 1014.67 1015.23 1015.53 1015.75 1016.00 1016.06 1016.20 1016.33 1016.55 1016.80 1017.16 1017.50 1017.91 1018.18 1018.38 1018.54 1018.71 1018.89 1019.09 1019.15 1019.23 1019.25 1019.47 1019.67 1019.90 1020.00 1020.10 1020.25 1020.28 1020.17 1020.08 1019.91 1019.88 1019.90 1019.92 1019.90 1019.82
1012.69 1012.89 1013.38 1013.73 1014.14 1014.51 1014.83 1015.33 1015.63 1015.93 1016.24 1016.51 1016.61 1016.79 1016.92 1017.20 1017.50 1017.91 1018.28 1018.50 1018.67 1018.83 1019.04 1019.23 1019.37 1019.50 1019.55 1019.63 1019.72 1019.91 1020.09 1020.29 1020.41 1020.51 1020.48 1020.38 1020.22 1020.13 1020.15 1020.20 1020.22 1020.19 1020.19
1012.86 1013.16 1013.56 1013.99 1014.38 1014.79 1015.06 1015.45 1015.75 1016.11 1016.45 1016.73 1016.92 1017.07 1017.28 1017.48 1017.87 1018.19 1018.51 1018.78 1018.93 1019.08 1019.22 1019.39 1019.58 1019.75 1019.77 1019.83 1020.00 1020.13 1020.27 1020.40 1020.49 1020.58 1020.63 1020.63 1020.34 1020.29 1020.31 1020.40 1020.42 1020.41 1020.42
1013.17 1013.47 1013.96 1014.39 1014.76 1015.07 1015.43 1015.71 1015.98 1016.26 1016.65 1016.94 1017.19 1017.39 1017.69 1017.99 1018.22 1018.50 1018.75 1019.00 1019.18 1019.34 1019.56 1019.70 1019.84 1019.91 1020.08 1020.16 1020.17 1020.32 1020.44 1020.48 1020.64 1020.75 1020.68 1020.73 1020.52 1020.47 1020.50 1020.56 1020.55 1020.53 1020.59
1013.53 1013.78 1014.29 1014.74 1015.08 1015.55 1015.81 1015.99 1016.22 1016.57 1016.84 1017.26 1017.48 1017.78 1018.10 1018.41 1018.66 1018.85 1019.03 1019.25 1019.47 1019.62 1019.79 1019.92 1020.10 1020.22 1020.26 1020.33 1020.43 1020.42 1020.46 1020.64 1020.78 1020.80 1020.82 1020.82 1020.61 1020.59 1020.65 1020.68 1020.70 1020.72 1020.77
1013.93 1014.12 1014.45 1014.98 1015.41 1015.79 1016.14 1016.23 1016.49 1016.68 1017.08 1017.44 1017.86 1018.04 1018.47 1018.82 1019.07 1019.31 1019.39 1019.49 1019.70 1019.82 1019.96 1020.06 1020.17 1020.32 1020.46 1020.59 1020.62 1020.64 1020.65 1020.76 1020.82 1020.86 1020.87 1020.76 1020.66 1020.60 1020.69 1020.75 1020.79 1020.79 1020.82
1014.32 1014.58 1014.72 1015.03 1015.51 1015.95 1016.23 1016.54 1016.78 1017.05 1017.21 1017.52 1018.09 1018.36 1018.68 1018.96 1019.20 1019.47 1019.59 1019.73 1019.85 1020.00 1020.09 1020.16 1020.21 1020.35 1020.57 1020.79 1020.88 1020.84 1020.94 1020.94 1020.91 1020.86 1020.81 1020.74 1020.63 1020.51 1020.54 1020.68 1020.79 1020.79 1020.79
1014.29 1014.81 1015.54 1015.75 1015.83 1015.94 1016.26 1016.67 1016.88 1017.33 1017.50 1017.73 1018.14 1018.41 1018.75 1019.06 1019.33 1019.55 1019.81 1020.03 1020.15 1020.20 1020.39 1020.39 1020.46 1020.54 1020.69 1020.83 1020.90 1020.98 1020.93 1020.89 1020.90 1020.78 1020.66 1020.61 1020.54 1020.43 1020.37 1020.47 1020.63 1020.69 1020.70
1014.59 1014.31 1015.40 1015.67 1016.03 1016.63 1016.83 1016.73 1016.90 1017.35 1017.62 1017.71 1018.15 1018.46 1018.75 1019.12 1019.49 1019.66 1019.88 1020.11 1020.34 1020.39 1020.60 1020.72 1020.79 1020.69 1020.74 1020.82 1020.91 1020.95 1020.90 1020.87 1020.81 1020.73 1020.63 1020.51 1020.45 1020.32 1020.19 1020.19 1020.31 1020.33 1020.31
1014.49 1014.06 1014.52 1015.18 1016.07 1016.50 1017.05 1017.18 1017.09 1017.30 1017.53 1017.78 1018.12 1018.44 1018.53 1019.02 1019.28 1019.48 1019.74 1020.02 1020.24 1020.40 1020.48 1020.71 1020.82 1020.89 1020.87 1020.84 1020.80 1020.80 1020.78 1020.71 1020.65 1020.58 1020.45 1020.27 1020.24 1020.17 1020.07 1019.99 1020.00 1020.00 1019.98
1013.71 1013.50 1012.79 1014.25 1015.34 1016.25 1016.70 1017.13 1017.39 1017.25 1017.30 1017.76 1017.99 1018.30 1018.49 1018.86 1019.14 1019.33 1019.58 1019.77 1020.00 1020.20 1020.33 1020.46 1020.64 1020.76 1020.80 1020.82 1020.71 1020.61 1020.53 1020.50 1020.41 1020.31 1020.19 1020.03 1019.95 1019.87 1019.80 1019.80 1019.74 1019.67 1019.74
1013.79 1012.61 1011.44 1013.75 1014.45 1015.93 1016.37 1016.79 1017.29 1017.55 1017.39 1017.52 1017.88 1018.00 1018.24 1018.66 1018.98 1019.13 1019.36 1019.68 1019.71 1019.85 1020.12 1020.35 1020.46 1020.52 1020.55 1020.47 1020.63 1020.43 1020.34 1020.22 1020.08 1019.94 1019.85 1019.76 1019.59 1019.61 1019.56 1019.54 1019.46 1019.50 1019.59
1012.27 1012.34 1012.45 1014.56 1014.05 1014.93 1015.74 1016.38 1016.82 1017.43 1017.54 1017.45 1017.38 1017.61 1017.80 1018.11 1018.47 1018.81 1019.16 1019.35 1019.49 1019.88 1019.98 1020.12 1020.31 1020.50 1020.53 1020.47 1020.42 1020.28 1020.13 1019.95 1019.67 1019.47 1019.34 1019.31 1019.34 1019.32 1019.28 1019.34 1019.27 1019.37 1019.47
1012.12 1012.88 1013.56 1014.17 1014.38 1015.10 1015.51 1015.75 1016.50 1016.72 1017.01 1017.22 1017.42 1017.44 1017.57 1017.70 1018.04 1018.44 1018.61 1018.86 1019.12 1019.52 1019.73 1019.90 1020.11 1020.26 1020.31 1020.20 1020.22 1020.03 1019.93 1019.73 1019.38 1019.31 1019.36 1019.40 1019.26 1019.21 1019.14 1019.10 1019.03 1019.13 1019.35
1011.93 1013.15 1013.84 1013.68 1014.13 1014.61 1014.70 1015.23 1016.15 1016.08 1016.66 1016.60 1016.90 1016.76 1016.92 1017.08 1017.49 1017.99 1018.19 1018.40 1018.71 1019.18 1019.35 1019.69 1019.85 1019.87 1019.79 1019.65 1019.66 1019.63 1019.48 1019.50 1019.44 1019.50 1019.62 1019.49 1019.24 1019.05 1019.08 1019.16 1019.16 1019.30 1019.50
1012.03 1012.82 1013.27 1013.67 1014.31 1014.93 1014.86 1015.96 1016.08 1015.65 1015.80 1016.02 1015.86 1016.10 1016.20 1016.62 1016.87 1017.31 1017.76 1018.03 1018.47 1018.83 1019.00 1019.33 1019.63 1019.80 1019.68 1019.53 1019.79 1019.73 1019.55 1019.37 1019.46 1019.80 1019.80 1019.70 1019.33 1019.05 1018.99 1019.27 1019.53 1019.58 1019.94
1012.21 1012.81 1013.23 1013.37 1013.95 1014.08 1013.90 1014.71 1014.88 1015.09 1015.32 1015.21 1014.59 1015.39 1016.18 1016.56 1016.79 1017.07 1017.24 1017.67 1017.97 1018.35 1018.58 1018.88 1019.18 1019.66 1019.92 1019.71 1020.04 1020.15 1019.93 1019.86 1019.78 1019.65 1019.88 1019.84 1019.88 1019.59 1019.60 1019.81 1020.02 1020.03 1020.16
1012.47 1012.40 1012.38 1012.75 1013.30 1013.65 1013.59 1014.29 1014.73 1014.95 1015.07 1015.25 1015.43 1015.05 1015.55 1016.14 1016.25 1016.37 1016.97 1017.44 1017.99 1018.11 1018.49 1018.75 1018.86 1019.51 1019.96 1020.11 1020.05 1020.22 1020.17 1020.26 1020.44 1020.03 1020.21 1020.23 1020.10 1020.18 1020.29 1020.53 1020.59 1020.79 1020.73
1012.21 1012.45 1012.33 1012.61 1012.51 1012.60 1013.00 1013.70 1013.92 1014.43 1014.75 1014.82 1015.10 1015.42 1015.79 1015.75 1016.20 1016.43 1016.83 1017.23 1018.09 1018.67 1018.87 1019.23 1019.27 1019.44 1019.94 1020.19 1020.31 1020.44 1020.27 1020.36 1020.52 1020.71 1020.52 1020.59 1020.50 1020.63 1020.68 1021.02 1021.27 1021.31 1021.26
1011.96 1012.02 1012.26 1012.49 1012.65 1012.69 1012.71 1012.96 1013.76 1014.40 1014.35 1014.76 1015.43 1015.68 1016.08 1016.28 1016.19 1016.56 1017.22 1017.53 1018.25 1018.80 1019.39 1019.79 1019.90 1019.91 1020.03 1020.26 1020.43 1020.78 1020.76 1020.56 1020.61 1021.20 1020.83 1021.01 1020.96 1021.17 1021.26 1021.31 1021.39 1021.56 1021.56
1011.60 1011.82 1012.08 1012.19 1012.19 1012.28 1012.71 1012.86 1013.21 1013.68 1013.91 1014.27 1015.05 1015.88 1016.58 1016.97 1017.13 1017.28 1017.10 1017.48 1018.54 1019.61 1019.60 1019.77 1019.98 1020.23 1020.40 1020.47 1020.59 1020.73 1020.85 1020.89 1020.91 1021.05 1021.17 1021.09 1021.20 1021.35 1021.46 1021.58 1021.64 1021.85 1021.81
Thickness
5761 5763 5760 5759 5757 5757 5756 5755 5755 5754 5754 5755 5753 5751 5750 5749 5748 5745 5742 5738 5736 5734 5733 5732 5730 5728 5726 5725 5723 5722 5722 5722 5720 5720 5720 5720 5720 5718 5717 5716 5715 5714 5712
5764 5761 5758 5755 5754 5753 5752 5752 5751 5750 5750 5751 5750 5749 5748 5746 5744 5741 5739 5736 5733 5732 5731 5730 5728 5726 5724 5722 5720 5719 5718 5718 5717 5717 5718 5718 5717 5716 5716 5714 5713 5711 5709
5759 5756 5754 5753 5750 5749 5747 5747 5747 5746 5747 5747 5747 5746 5744 5742 5740 5738 5735 5732 5731 5729 5728 5727 5725 5723 5720 5718 5718 5717 5715 5715 5715 5715 5715 5715 5714 5714 5713 5712 5710 5708 5706
5754 5752 5750 5749 5746 5745 5743 5742 5742 5742 5743 5743 5742 5741 5739 5738 5736 5734 5732 5729 5727 5726 5724 5723 5721 5720 5718 5717 5715 5715 5713 5712 5712 5712 5711 5711 5711 5710 5709 5708 5706 5705 5704
5747 5747 5746 5744 5742 5741 5740 5737 5738 5738 5738 5739 5738 5737 5735 5736 5732 5729 5727 5725 5724 5722 5720 5720 5718 5717 5717 5716 5714 5711 5711 5710 5709 5709 5709 5708 5708 5706 5705 5703 5701 5700 5700
5741 5740 5740 5738 5737 5737 5736 5732 5732 5733 5732 5733 5733 5732 5731 5730 5728 5725 5723 5721 5720 5718 5717 5715 5714 5714 5714 5713 5712 5710 5708 5708 5708 5706 5706 5704 5704 5703 5702 5700 5699 5697 5695
5734 5735 5733 5732 5731 5731 5731 5729 5728 5728 5727 5726 5726 5726 5726 5724 5723 5721 5718 5717 5716 5715 5713 5711 5711 5710 5710 5710 5709 5708 5707 5705 5705 5704 5703 5702 5701 5700 5699 5697 5695 5693 5691
5727 5728 5727 5725 5725 5724 5725 5724 5724 5723 5722 5721 5721 5721 5720 5720 5718 5716 5714 5713 5712 5711 5710 5708 5707 5707 5707 5707 5706 5705 5704 5704 5703 5702 5701 5699 5699 5698 5696 5694 5692 5690 5688
5716 5719 5718 5717 5717 5717 5717 5718 5718 5718 5717 5717 5716 5716 5714 5713 5713 5712 5710 5709 5708 5707 5706 5704 5704 5704 5703 5703 5704 5703 5702 5702 5701 5700 5699 5698 5696 5695 5693 5692 5690 5688 5685
5707 5709 5709 5709 5710 5709 5710 5711 5712 5712 5712 5710 5711 5710 5708 5707 5705 5706 5706 5704 5703 5703 5702 5701 5700 5700 5700 5700 5700 5701 5701 5699 5698 5698 5697 5695 5694 5692 5690 5688 5686 5684 5681
5696 5700 5701 5701 5702 5703 5703 5705 5705 5706 5705 5705 5703 5705 5702 5701 5700 5699 5700 5700 5699 5698 5698 5698 5698 5697 5697 5697 5696 5697 5698 5698 5697 5695 5694 5693 5691 5690 5687 5685 5683 5681 5678
5687 5691 5695 5696 5697 5697 5697 5698 5699 5699 5701 5700 5697 5699 5698 5698 5697 5695 5696 5695 5695 5695 5695 5695 5695 5695 5694 5694 5693 5693 5693 5693 5694 5693 5691 5690 5689 5687 5686 5683 5680 5678 5675
5678 5680 5678 5682 5684 5688 5691 5691 5694 5692 5694 5695 5694 5695 5694 5694 5693 5693 5692 5690 5691 5691 5691 5691 5692 5691 5691 5690 5690 5689 5689 5690 5690 5691 5690 5688 5687 5685 5683 5680 5677 5675 5672
5667 5679 5676 5680 5679 5676 5677 5684 5689 5687 5689 5691 5690 5690 5692 5691 5689 5690 5690 5688 5687 5687 5686 5686 5686 5688 5687 5687 5686 5686 5686 5686 5687 5686 5686 5686 5685 5683 5682 5679 5676 5673 5671
5662 5674 5678 5674 5671 5670 5670 5673 5678 5682 5685 5686 5686 5685 5689 5687 5687 5687 5687 5686 5685 5685 5685 5683 5682 5682 5682 5683 5683 5684 5683 5683 5683 5683 5683 5683 5682 5681 5679 5677 5674 5672 5669
5668 5671 5685 5676 5669 5665 5667 5667 5668 5674 5681 5680 5680 5681 5683 5682 5682 5684 5683 5684 5683 5682 5682 5681 5680 5679 5678 5678 5679 5680 5681 5680 5680 5680 5680 5681 5680 5679 5677 5673 5671 5669 5666
5660 5678 5693 5680 5676 5666 5666 5664 5665 5664 5669 5675 5675 5679 5680 5678 5678 5680 5680 5679 5680 5680 5678 5677 5676 5676 5676 5676 5675 5676 5677 5677 5677 5678 5677 5677 5677 5675 5673 5671 5668 5665 5661
5671 5675 5682 5671 5680 5674 5669 5664 5664 5664 5666 5669 5673 5675 5677 5677 5677 5677 5676 5676 5675 5673 5673 5673 5672 5670 5670 5671 5671 5672 5672 5673 5674 5675 5675 5674 5673 5671 5670 5667 5664 5660 5656
5670 5667 5666 5667 5669 5665 5664 5666 5662 5664 5664 5667 5670 5671 5671 5673 5673 5672 5673 5672 5671 5669 5668 5668 5667 5666 5666 5667 5667 5668 5668 5668 5669 5668 5668 5668 5668 5667 5666 5663 5660 5656 5651
5666 5660 5658 5666 5664 5664 5670 5669 5664 5667 5663 5668 5668 5669 5670 5672 5671 5669 5670 5670 5667 5664 5664 5662 5661 5662 5664 5666 5666 5665 5666 5665 5663 5662 5660 5659 5660 5661 5659 5656 5653 5649 5643
5661 5659 5658 5658 5655 5657 5664 5657 5662 5668 5669 5670 5671 5673 5672 5671 5670 5668 5665 5665 5661 5660 5660 5657 5655 5654 5657 5660 5659 5658 5659 5659 5657 5654 5652 5652 5653 5654 5653 5649 5643 5640 5633
5655 5653 5653 5655 5652 5658 5669 5664 5666 5668 5667 5671 5678 5675 5670 5666 5664 5663 5662 5660 5657 5655 5656 5654 5652 5647 5646 5650 5647 5647 5647 5647 5647 5648 5645 5644 5641 5641 5640 5635 5631 5628 5624
5646 5652 5658 5656 5654 5655 5662 5661 5660 5660 5661 5662 5665 5671 5670 5665 5663 5665 5659 5652 5648 5648 5647 5646 5647 5641 5638 5638 5640 5638 5639 5637 5636 5638 5635 5633 5632 5629 5625 5619 5616 5612 5610
5643 5645 5651 5654 5657 5662 5663 5658 5660 5658 5657 5661 5662 5663 5662 5661 5658 5658 5652 5649 5642 5637 5637 5634 5633 5633 5631 5631 5630 5626 5628 5629 5627 5625 5626 5622 5620 5617 5614 5608 5602 5598 5596
5641 5646 5650 5652 5653 5656 5660 5658 5653 5652 5653 5653 5651 5650 5649 5648 5650 5647 5641 5638 5634 5629 5625 5623 5620 5621 5623 5621 5621 5617 5615 5615 5613 5610 5615 5609 5606 5601 5599 5596 5591 5586 5583
5640 5643 5645 5647 5651 5653 5652 5654 5654 5651 5650 5650 5646 5642 5638 5635 5634 5632 5634 5632 5625 5616 5616 5614 5612 5609 5608 5608 5608 5606 5604 5603 5600 5596 5597 5598 5594 5590 5586 5582 5579 5575 5573